Find Starlink 32380

NORAD ID: 61069 Int'l Des: 2024-164 Owner: SPXS Country: US Constellation: starlink operational
LEOCIRCULAR

Live Position

Loading 3D Globe...

About Starlink 32380

Description loading...

Upcoming Passes

Passes for default location (London). Set your location on the main map for personalized predictions.

Altitude History

Loading altitude history...

Two-Line Element Set

1 61069U 24164V 26127.84390772 .00000054 00000-0 13941-4 0 9998
2 61069 53.1602 176.4035 0001179 94.2584 265.8551 15.30190803 92538
Epoch: May 7, 2026 • Age: 11 hours

Current Status

Altitude 492.6 km
Velocity 7.62 km/s
Sub-Earth Point -48.27°S, 147.63°E
Launch Date Sep 13, 2024
Age 1.6 years
Type internet

Technical Details

Classification Payload
Mass 730.00 kg
Dry Mass 700.00 kg
Total Mass 730.00 kg
Length 0.30 m
Diameter 4.10 m
Span 29.00 m
Shape Box + pan
Manufacturer SPXS
Bus Type Starlink V2M
Phase Status In Orbit
Owner/State SPXS/US

Most Searched